Wind_Speed
22 20 21 20 19 19 19 18 15 12 11 10 10 9 8 8 6 5 6 9 10 7 5 5 5 5 7 7 7 7 7 7 8 8 9 9 9 9 11 12 13 14 14 14 14 15 15 15 15 16 16 17 17 16 16 17 18 18 17 16 16 16 17 14 8 7 11 12 13 12 10 9 9 8 6 4 3 5 4 4 4 6 6 6 7
23 21 20 20 19 18 19 20 18 14 11 10 10 9 8 8 5 8 11 10 9 7 8 8 8 7 6 6 7 8 8 7 8 9 9 10 10 10 12 13 14 14 14 15 15 15 14 14 14 15 16 17 16 16 16 17 17 17 17 16 16 16 16 15 11 8 10 13 14 13 11 10 9 9 8 6 6 6 7 7 6 6 6 5 5
24 21 18 19 17 16 18 21 21 18 14 12 12 11 9 9 8 12 12 10 10 10 9 7 6 6 5 6 7 8 8 9 9 9 10 11 11 12 14 14 14 14 14 15 14 14 14 14 15 16 16 17 16 16 17 17 17 17 17 16 16 16 15 14 12 9 10 12 14 14 14 13 11 11 10 9 8 7 7 8 7 6 6 5 3
23 21 17 16 15 12 16 20 20 17 14 12 11 8 6 9 14 13 11 12 11 10 8 7 7 6 7 8 9 9 9 9 9 10 11 11 12 13 14 13 13 13 14 14 13 13 14 14 16 17 17 17 16 16 17 17 17 16 16 16 17 16 15 14 13 11 10 11 13 14 14 13 12 11 11 9 8 7 7 7 8 7 5 7 7
22 21 17 15 14 10 15 17 15 14 13 12 8 5 8 14 16 14 13 13 11 9 7 7 8 8 9 9 9 9 9 9 10 10 10 11 13 13 13 13 13 13 13 13 13 13 13 14 16 17 17 18 17 17 17 16 16 16 16 17 18 18 17 16 15 13 10 10 11 12 13 13 11 11 12 11 9 8 8 8 10 8 4 8 10
22 22 20 17 15 12 13 14 13 12 11 10 9 9 11 13 14 15 15 12 11 10 9 9 10 10 10 10 9 9 9 9 10 10 10 11 12 13 13 13 13 13 13 13 13 13 12 14 16 16 16 17 17 16 16 16 16 17 18 17 18 18 18 17 16 14 11 10 10 11 14 14 13 13 14 13 10 11 10 10 12 11 7 8 8
22 22 21 19 17 15 14 14 14 13 11 9 11 11 11 12 13 14 13 11 12 12 10 10 10 10 10 10 9 9 9 10 11 10 10 10 12 12 12 13 13 13 13 13 13 12 12 14 15 15 15 16 16 15 16 17 17 18 19 18 18 19 18 17 17 15 13 12 11 12 13 14 15 15 15 14 12 13 15 12 10 10 11 11 8
22 22 21 20 18 16 16 15 15 14 13 12 13 13 12 13 13 12 12 11 12 11 11 11 11 11 11 10 9 9 8 10 11 10 10 10 11 12 12 12 12 12 12 12 13 13 12 13 14 14 14 14 14 14 16 17 17 19 20 20 20 21 20 19 18 16 14 14 14 14 14 15 17 18 18 18 16 16 16 12 8 9 12 12 10
23 22 20 20 19 17 17 16 16 15 15 15 15 15 14 14 13 12 12 12 12 12 12 12 12 12 12 10 9 9 9 10 10 10 9 9 9 10 11 12 12 12 12 11 12 13 13 13 13 13 13 12 13 15 16 17 17 19 21 21 21 21 20 20 19 17 17 17 16 15 15 16 18 19 18 18 16 15 13 11 9 9 12 15 14
22 21 21 21 20 19 18 18 17 16 17 18 17 16 15 13 13 13 14 14 15 14 13 13 13 13 12 10 9 9 10 12 12 11 11 9 9 9 10 12 12 13 12 12 12 13 13 13 12 13 13 12 12 14 16 16 17 18 20 21 21 20 20 20 19 19 19 17 17 18 15 15 19 19 17 16 16 15 14 13 10 8 10 14 15
22 21 21 21 21 20 19 19 19 18 18 18 17 16 15 14 15 16 16 16 15 15 14 14 14 13 12 11 10 10 12 13 13 12 11 10 10 9 9 11 12 12 12 12 12 12 12 12 12 13 14 13 12 12 13 15 15 16 18 20 21 20 20 20 20 21 20 19 19 19 17 17 19 20 19 18 17 16 15 14 12 11 11 10 10
21 21 21 21 22 22 20 21 21 18 17 17 16 16 16 16 17 17 17 16 16 15 15 14 14 13 12 12 12 12 13 13 12 12 12 11 11 11 10 10 11 12 12 12 12 12 12 12 13 13 14 14 13 10 10 12 14 15 16 18 21 21 21 21 21 21 21 19 18 19 18 17 18 21 21 19 17 16 15 14 13 14 14 13 11
21 21 21 21 22 23 22 22 22 19 17 16 15 16 17 17 17 17 17 17 16 16 15 15 14 13 13 13 12 11 12 13 12 12 12 12 12 12 11 11 11 12 11 12 11 12 13 13 13 13 13 14 14 12 10 11 14 14 13 15 19 22 22 22 21 20 20 19 18 18 19 18 18 21 21 19 17 15 14 14 14 15 16 15 13
21 21 22 22 23 23 23 23 22 20 18 17 16 17 18 18 18 18 18 18 17 17 15 15 15 14 13 13 12 11 12 13 13 13 12 12 13 13 11 11 11 12 13 15 15 13 13 13 13 13 13 15 16 13 11 11 13 11 11 13 17 20 22 22 21 20 19 18 17 18 20 21 21 21 19 19 18 16 14 13 13 15 17 15 14
21 21 22 22 23 23 23 23 22 20 19 18 17 18 18 19 19 19 19 18 17 17 16 16 15 14 13 12 11 11 12 11 11 11 11 11 13 13 12 11 13 14 15 17 20 18 14 13 13 13 13 15 15 12 11 12 12 12 11 12 14 17 20 21 20 19 19 17 16 17 21 24 24 21 18 18 19 17 15 15 13 14 17 16 15
21 21 22 23 24 25 24 23 22 21 20 19 19 19 20 20 20 20 20 18 18 17 17 16 16 14 13 12 11 11 11 11 10 9 10 11 12 12 11 11 11 11 11 13 19 21 18 15 14 14 14 15 14 13 13 14 14 14 13 13 14 15 16 18 18 18 18 17 14 15 19 23 24 22 18 17 18 17 18 18 16 16 17 15 14
21 22 23 24 25 26 25 24 23 22 22 21 20 21 21 21 21 21 21 20 19 18 17 16 16 15 13 11 10 11 11 10 9 8 9 11 12 10 9 9 8 8 9 9 14 20 20 18 17 16 16 17 15 14 16 16 16 16 15 15 14 13 13 15 16 16 16 17 16 15 18 21 23 24 22 19 18 19 22 22 18 15 14 12 12
22 23 24 25 26 26 25 24 24 23 23 22 22 22 22 22 21 22 22 21 19 18 18 17 15 14 13 11 10 10 11 9 8 7 8 10 11 10 8 8 7 8 10 11 12 16 19 20 19 18 19 18 16 16 17 17 18 17 16 15 14 14 14 14 15 15 15 17 18 18 19 20 21 23 25 24 21 21 23 23 18 14 13 11 10
23 24 24 25 26 26 24 24 24 25 24 23 22 23 23 22 22 22 21 21 20 18 17 17 15 13 12 11 10 10 10 9 7 7 7 8 9 9 8 8 8 9 11 13 13 14 17 19 20 19 19 19 18 17 17 17 18 16 15 14 13 14 15 14 15 15 15 17 20 20 20 20 22 23 24 25 24 23 22 22 20 18 16 13 13
24 25 25 26 26 25 24 25 25 25 25 23 23 23 23 23 23 22 21 19 19 17 16 15 14 13 12 11 9 9 9 9 8 7 7 8 9 9 8 8 8 10 12 13 13 13 16 19 20 19 19 19 19 19 19 18 18 17 16 15 14 14 14 16 17 17 18 19 20 21 21 21 23 25 26 26 26 24 22 22 22 22 19 16 16
24 25 25 25 25 23 23 24 24 24 25 24 23 22 23 24 24 23 21 19 18 17 15 13 13 12 11 10 9 8 9 8 8 8 8 9 9 9 9 9 9 11 13 13 13 14 17 19 20 19 19 19 20 20 21 20 19 18 18 17 17 16 16 17 18 20 21 20 19 19 20 21 23 24 26 27 27 25 23 21 21 23 22 19 17
25 25 25 25 24 23 23 23 23 23 24 24 23 22 23 23 23 22 21 21 20 18 16 14 11 9 8 8 8 8 8 8 8 8 7 7 8 9 10 10 10 11 13 13 13 15 17 19 19 19 19 19 19 19 19 19 19 18 18 17 16 15 15 16 18 20 21 20 20 19 19 19 21 22 23 24 25 25 25 23 20 21 21 21 19
25 24 24 24 23 22 23 23 22 23 25 24 23 23 23 23 23 24 24 24 22 21 19 16 12 8 7 7 7 8 10 10 9 9 7 7 9 10 11 11 10 11 13 13 12 14 15 16 16 16 16 17 18 18 17 17 17 17 17 16 15 14 13 14 16 18 20 20 20 21 19 18 18 18 18 19 20 22 25 25 23 20 19 18 18
25 24 23 23 23 24 25 24 23 24 25 24 23 24 25 24 24 25 26 26 25 23 21 20 16 11 8 8 7 8 10 11 10 10 10 10 10 9 10 11 11 11 12 12 12 12 13 14 13 12 12 14 16 18 18 17 16 15 15 15 14 14 14 14 13 15 16 17 18 18 18 18 18 17 16 15 15 17 21 25 26 24 21 18 17
25 24 24 25 26 26 25 25 25 25 25 24 25 26 26 27 26 25 25 25 26 25 23 22 19 14 11 10 9 9 10 11 11 11 11 10 10 10 11 11 11 11 13 13 13 12 12 11 11 10 9 8 9 11 14 16 16 16 15 14 14 15 15 16 15 14 14 15 15 16 15 16 17 17 17 16 15 14 15 19 23 25 24 22 21
26 26 27 27 28 29 29 28 27 28 27 27 27 28 30 31 30 27 24 23 24 25 23 23 21 17 13 12 12 11 10 11 11 11 11 10 10 10 11 11 11 12 13 13 12 11 9 8 7 6 6 6 7 6 7 9 11 12 13 13 13 15 15 15 16 16 15 14 14 14 14 15 15 16 16 17 17 17 14 14 18 21 22 23 22
28 28 28 28 30 33 33 31 29 28 27 26 27 28 30 30 27 24 21 18 18 19 19 20 21 19 16 14 14 13 12 12 12 12 11 10 10 11 12 12 12 12 11 10 9 7 5 5 4 3 2 5 7 8 8 8 7 7 8 9 10 13 16 15 14 14 14 13 12 11 11 13 15 16 16 16 17 17 15 13 13 14 15 16 16
28 28 29 31 33 35 35 33 31 29 26 27 29 29 29 29 28 27 23 19 17 16 16 18 20 20 18 17 16 15 14 13 13 13 12 11 11 11 11 9 8 9 8 6 4 1 4 4 4 3 3 4 4 6 9 10 10 8 8 9 9 11 13 14 14 13 12 12 12 11 11 11 11 13 14 14 14 15 15 15 13 11 10 11 12
25 26 28 31 32 33 33 30 31 32 33 33 32 29 29 32 33 31 27 23 20 19 18 18 20 20 18 17 17 17 16 15 16 15 13 13 12 12 10 8 7 8 9 7 3 2 4 6 6 7 5 3 4 6 9 10 10 10 9 9 9 9 9 10 11 12 12 12 12 12 12 12 11 11 10 10 11 12 12 13 14 12 11 12 12
20 21 27 33 32 30 29 27 29 34 37 36 33 30 29 32 32 29 26 24 22 20 19 17 19 19 18 18 18 17 16 17 18 17 15 13 11 10 10 9 7 7 8 7 4 3 5 6 5 3 1 4 5 4 5 6 9 10 10 10 9 8 8 9 9 9 10 11 11 11 11 11 11 11 11 10 11 11 11 11 11 12 13 12 12
18 18 25 33 32 27 26 29 33 36 37 37 37 35 31 29 26 24 24 23 21 19 18 17 18 18 18 19 19 16 16 18 20 19 16 12 10 9 10 9 7 7 9 9 4 4 7 6 1 4 5 5 5 5 5 5 6 9 10 10 9 8 8 10 10 9 8 9 10 9 10 10 10 11 11 11 11 11 11 11 10 10 10 10 9
17 15 19 24 24 21 22 29 34 35 34 33 33 33 31 29 25 21 19 19 19 17 16 16 17 16 16 18 18 16 17 20 20 19 17 14 11 9 9 9 9 10 11 8 4 7 8 4 2 3 3 4 4 4 5 5 5 7 9 9 8 6 6 7 8 8 8 8 8 8 9 9 10 10 11 11 11 11 12 12 12 10 9 9 9
18 17 17 19 20 19 22 27 29 30 30 29 29 29 30 29 27 24 20 18 18 17 15 15 15 15 16 17 17 15 17 19 18 17 16 14 12 11 10 10 12 13 11 6 5 7 4 3 4 3 3 4 4 4 5 5 5 5 6 7 7 5 4 5 6 7 7 7 8 8 8 9 9 10 11 12 12 13 13 13 14 14 13 12 12
17 18 19 18 19 21 23 24 24 26 29 29 29 28 26 25 27 28 25 22 21 19 17 15 16 16 17 17 15 14 16 16 15 15 15 13 12 11 10 11 12 12 9 4 4 6 3 4 4 3 2 3 3 4 4 4 4 4 5 6 6 6 5 5 6 7 7 7 6 7 8 8 8 9 10 11 12 13 13 12 12 14 14 14 14
17 19 19 19 20 21 21 22 24 27 28 27 26 24 22 22 24 25 23 21 21 21 19 18 17 16 16 15 14 14 15 16 15 15 15 14 13 12 11 11 12 10 8 5 4 6 4 4 5 4 3 3 2 3 3 3 3 3 4 5 6 7 8 7 5 6 6 6 5 5 6 8 8 9 10 10 10 11 12 11 11 11 12 12 12
20 19 20 21 21 20 21 23 25 26 26 25 23 22 20 20 21 20 18 18 19 20 19 18 17 15 14 15 15 15 16 16 16 16 15 14 14 13 12 12 12 11 10 8 7 6 3 4 6 5 4 4 4 3 4 4 4 2 3 5 6 6 6 5 2 2 3 4 4 4 4 6 8 9 10 10 9 9 10 11 11 11 11 11 10
20 18 20 21 21 20 22 24 24 25 24 24 22 20 20 21 20 19 18 18 18 17 18 18 18 17 16 16 16 16 17 16 16 15 15 14 14 14 14 12 10 11 13 11 8 6 5 5 5 5 5 5 5 5 4 4 3 3 2 3 5 5 4 5 4 3 4 4 3 3 4 5 6 7 9 9 9 9 9 9 10 11 11 10 9
19 19 20 21 21 21 23 25 25 24 23 22 21 21 22 22 21 20 19 19 19 18 18 20 20 19 19 18 18 17 17 16 16 15 16 16 16 16 17 14 9 9 10 11 9 8 7 6 6 6 6 6 6 6 5 5 5 6 5 5 6 6 5 6 5 4 3 4 3 3 4 4 4 6 8 9 8 8 9 9 8 9 10 10 10
18 20 21 22 22 23 25 28 27 25 22 22 22 22 23 23 23 23 22 21 21 19 20 21 21 19 19 20 20 19 18 18 17 16 16 17 17 17 18 15 10 8 7 9 10 9 8 7 8 8 7 6 7 6 5 5 7 7 6 6 7 6 4 4 4 2 2 3 3 2 3 4 4 4 6 7 7 7 7 8 7 8 9 8 8
19 22 23 23 23 24 27 28 26 22 22 22 23 23 24 24 25 24 22 21 20 19 19 21 21 20 21 22 24 23 21 18 17 16 16 17 18 18 18 17 13 9 8 9 10 10 10 9 9 9 9 8 7 7 6 5 5 6 7 7 6 5 5 4 3 3 2 3 3 2 2 2 3 3 4 5 5 5 5 6 6 7 9 8 6
18 22 25 24 22 23 26 25 21 20 21 22 23 24 24 24 24 23 21 20 20 19 19 20 20 21 22 24 26 26 22 18 17 17 17 17 17 18 18 18 15 12 11 10 10 11 11 10 10 10 10 9 9 9 8 7 6 7 7 6 5 5 7 6 4 3 3 3 3 3 3 1 2 4 5 4 3 3 4 5 5 6 9 9 6
17 21 24 24 22 22 22 21 20 21 22 22 22 23 24 23 22 22 21 21 20 19 18 19 20 22 24 24 25 25 22 18 17 18 18 18 18 18 18 17 16 14 12 12 12 12 11 10 10 10 10 10 10 10 9 9 8 8 8 7 6 6 8 8 6 5 4 3 3 3 4 3 3 4 4 3 2 3 4 4 4 5 8 9 7
18 19 21 22 22 21 21 21 23 23 22 20 20 21 23 23 22 21 21 20 19 19 19 18 19 23 25 24 23 24 23 19 17 18 19 19 19 19 18 17 16 15 13 13 14 14 12 11 10 10 10 11 11 10 10 10 9 9 8 8 8 7 6 7 7 6 5 6 6 4 3 3 3 3 4 3 3 6 5 3 3 4 6 8 8
19 19 20 20 20 21 21 22 23 22 21 20 21 21 22 22 21 20 20 20 19 20 19 18 19 24 27 26 23 23 24 20 17 17 19 19 18 18 18 17 16 15 15 14 14 14 14 12 11 11 11 11 11 11 10 9 10 9 8 7 8 7 6 5 6 6 6 6 6 5 4 4 5 5 5 3 2 6 7 5 3 3 3 6 6
19 19 20 19 19 20 20 20 21 21 21 20 20 21 22 21 19 18 19 19 20 20 19 18 20 25 29 29 25 24 25 22 18 16 17 18 18 17 17 17 16 16 16 15 14 14 15 13 11 12 12 11 12 13 11 9 9 9 7 6 7 9 7 6 6 7 7 6 5 5 6 6 5 5 6 4 2 2 6 8 5 3 2 3 4
18 19 20 19 18 19 19 19 20 20 20 19 18 19 19 19 18 17 17 18 20 20 19 18 21 25 27 28 26 24 24 23 19 15 16 17 18 17 17 17 17 18 18 16 15 15 15 14 12 13 13 12 12 13 13 11 11 11 9 7 7 7 7 8 8 7 7 8 5 4 5 7 5 2 4 5 2 1 2 5 4 2 1 2 1
19 20 21 20 19 19 20 20 20 20 19 19 18 18 18 18 18 18 18 19 20 21 20 18 20 23 24 24 24 23 24 25 21 17 16 17 18 18 17 17 18 18 18 17 16 16 16 15 13 13 13 13 13 13 13 12 12 13 13 11 8 6 6 9 9 7 6 8 7 4 3 4 4 4 6 6 3 3 4 4 3 4 5 3 2
20 21 20 20 20 20 20 20 20 20 19 19 18 18 19 19 17 17 18 19 19 21 20 19 19 22 22 22 23 23 24 25 23 19 17 18 18 18 18 18 18 18 18 17 16 17 16 16 15 13 13 14 14 14 13 13 12 13 13 13 11 9 9 10 11 9 7 8 8 6 5 4 3 4 8 8 5 4 6 5 5 5 4 3 2
22 21 20 19 20 20 19 20 21 20 19 19 18 18 19 18 17 18 19 19 20 21 21 20 19 20 22 22 22 22 22 23 23 22 20 19 19 19 19 18 18 18 18 17 17 17 16 16 16 15 14 15 16 16 15 14 13 12 13 14 15 14 13 13 13 12 10 9 7 6 6 5 3 3 5 7 5 4 5 5 5 4 2 2 4
22 22 21 20 20 19 19 20 21 20 19 20 19 19 19 19 19 20 21 21 21 22 22 21 20 20 21 22 23 22 22 22 23 22 21 20 20 20 20 19 19 18 18 18 18 17 17 16 17 17 16 16 16 16 16 16 16 14 14 15 16 15 15 15 15 14 12 11 9 7 6 7 6 5 5 6 7 6 6 6 6 4 4 5 6
21 21 21 21 21 20 20 21 21 21 20 21 21 20 21 21 21 21 22 22 21 22 22 22 21 20 20 22 22 22 22 22 22 22 21 21 20 21 21 20 20 20 19 18 18 18 18 17 18 18 18 17 17 17 17 17 17 16 16 17 17 16 15 15 15 14 14 14 12 10 8 7 7 8 7 7 8 9 8 8 7 7 7 7 8
Wind_Direction
193 194 192 198 193 185 187 187 193 192 170 174 206 216 213 217 211 177 137 109 107 117 111 96 92 92 87 76 66 50 44 54 51 43 42 37 35 32 24 27 35 33 29 31 31 27 24 24 22 16 10 8 5 4 6 4 2 3 4 2 0 2 5 3 352 338 339 343 341 339 347 355 355 353 357 7 0 345 335 324 320 313 309 303 290
192 197 196 202 199 189 186 182 181 185 177 182 209 214 216 228 197 125 118 112 108 110 106 101 102 102 94 79 69 59 55 60 54 48 43 36 34 33 30 34 37 33 30 31 31 28 25 26 24 18 16 14 13 14 12 7 6 4 2 2 360 357 359 358 352 339 333 338 340 341 351 2 358 351 0 14 1 347 340 334 331 323 320 319 307
189 198 202 205 205 194 184 177 170 173 181 192 204 212 223 217 160 123 119 117 110 110 113 113 116 110 91 74 71 66 64 63 54 47 43 37 37 39 37 36 37 34 29 28 29 27 29 31 25 20 18 17 18 18 14 12 11 7 3 1 356 352 354 355 351 343 333 332 337 344 352 357 355 349 354 358 349 343 336 335 343 339 338 348 338
186 195 201 204 206 180 158 159 159 163 177 194 206 217 207 158 139 128 121 117 117 124 123 114 111 104 88 79 77 72 66 61 54 49 44 40 43 43 40 38 37 35 30 27 28 31 34 35 28 23 20 19 21 20 15 14 12 6 359 358 357 355 357 2 358 351 340 333 340 351 356 358 355 353 359 359 353 353 344 347 1 353 2 49 68
180 189 194 201 206 172 139 146 158 166 178 191 193 176 137 132 134 136 135 130 126 126 121 111 104 97 89 84 79 72 66 63 59 53 49 47 48 46 42 41 39 34 29 28 32 35 39 38 32 27 23 20 22 21 15 11 7 2 358 358 2 2 3 6 6 3 356 347 349 358 4 9 11 11 12 8 9 18 9 13 30 27 31 72 81
175 183 190 198 204 187 158 157 169 178 184 180 163 150 144 142 142 146 148 142 130 122 116 109 102 96 94 87 79 75 71 69 65 60 58 54 50 48 44 41 39 34 30 33 36 36 41 42 33 27 25 23 22 21 17 12 5 1 1 360 3 7 7 6 8 13 16 6 1 7 11 13 15 17 20 17 16 23 21 23 37 47 63 76 75
175 182 189 197 201 194 178 174 180 186 185 168 156 157 160 158 156 154 153 147 135 129 120 109 103 102 100 90 79 76 76 82 79 68 65 59 52 50 45 41 39 35 33 37 37 36 42 44 34 27 27 25 21 20 19 15 8 6 8 8 11 15 14 11 14 19 23 17 15 23 27 25 22 21 24 27 24 22 26 27 30 48 69 71 67
177 182 186 192 194 189 180 180 184 184 176 166 165 170 169 166 163 158 153 147 138 129 118 111 107 102 97 88 78 69 75 95 95 79 72 66 55 50 44 41 39 36 36 38 37 36 39 39 34 30 27 25 24 25 24 20 15 16 20 21 23 24 21 21 24 26 30 30 29 33 34 29 27 24 25 30 27 17 24 35 36 50 67 64 62
178 182 183 184 185 180 175 176 179 176 170 167 171 175 172 168 164 154 145 136 128 124 121 118 113 105 97 91 80 65 69 91 98 97 96 79 59 50 45 41 40 40 40 38 37 37 36 33 33 31 29 26 24 26 28 28 27 29 30 28 28 28 26 27 29 30 35 37 32 31 30 26 25 24 22 27 27 20 27 43 45 54 68 61 62
178 181 180 181 180 175 172 172 171 169 167 170 174 175 172 165 153 141 135 132 131 130 125 118 112 105 99 93 80 71 81 93 100 106 106 87 67 59 48 42 42 43 42 38 35 35 34 32 30 29 31 26 16 18 23 29 33 36 36 33 31 31 29 29 31 33 37 39 31 25 26 25 23 21 20 23 28 32 39 45 46 60 72 63 64
179 182 179 179 178 174 171 169 167 166 168 172 174 171 164 152 143 139 137 136 133 128 121 115 111 108 104 97 86 85 97 104 106 105 98 83 73 64 51 44 44 44 44 42 38 32 29 30 27 27 29 19 5 9 20 25 30 36 41 38 36 38 37 35 37 40 41 40 33 27 24 21 19 18 18 20 25 33 41 49 57 65 69 66 67
180 181 178 177 175 173 170 167 166 167 169 172 170 163 155 145 142 141 138 134 129 124 121 119 116 113 108 99 93 97 104 106 106 103 95 83 73 65 56 50 48 49 48 45 39 30 26 24 22 23 21 9 1 10 24 30 31 35 43 41 39 46 49 45 47 50 49 45 39 31 25 20 16 16 16 19 25 35 43 50 61 67 69 73 78
180 179 177 176 174 172 169 167 167 168 168 167 161 155 151 145 143 141 136 133 130 127 125 122 120 117 112 104 99 105 111 110 106 102 96 86 77 72 66 58 56 54 48 43 35 26 24 22 19 21 17 9 11 19 30 42 41 38 43 43 41 49 55 53 53 54 52 50 49 42 34 29 23 20 22 26 31 39 44 47 57 70 73 74 81
179 178 176 174 173 172 169 167 169 169 166 161 156 153 150 145 142 140 138 136 133 130 129 126 124 122 117 110 108 114 117 115 112 107 99 90 81 75 69 66 67 65 57 50 41 32 30 28 25 25 18 13 16 21 28 41 44 44 49 46 42 48 53 55 56 56 54 55 57 52 46 41 34 31 34 36 34 39 47 50 57 71 76 77 87
178 176 174 173 173 171 169 168 169 167 163 160 156 152 148 145 144 143 140 137 135 134 131 128 127 125 120 113 112 119 123 120 117 110 100 92 86 80 78 80 82 76 65 54 44 40 42 42 35 30 24 21 20 25 33 42 49 57 59 51 46 47 49 52 54 54 52 55 59 58 52 45 37 34 41 45 41 42 50 57 65 79 84 82 81
177 175 172 173 172 171 170 170 168 164 161 161 156 150 148 148 147 144 140 136 136 135 133 132 131 128 124 118 115 122 127 125 119 110 101 98 95 94 92 90 87 77 63 50 41 39 44 50 45 38 37 36 36 42 50 54 59 63 62 57 53 47 45 47 48 48 50 52 55 58 54 44 34 32 40 50 50 50 53 56 61 76 87 85 76
176 174 174 174 173 173 173 170 166 163 162 161 155 150 151 150 147 145 141 138 138 138 135 136 135 131 128 123 120 127 131 130 123 113 108 106 104 107 106 96 89 76 63 54 41 36 42 52 54 49 49 48 51 58 61 61 63 62 58 57 54 46 41 40 38 40 49 53 53 58 56 45 35 35 41 46 52 58 55 47 46 61 78 83 83
175 175 176 176 174 175 174 170 166 164 164 160 154 152 152 150 148 148 144 140 140 140 138 137 135 133 130 125 124 131 134 136 131 118 117 120 120 123 119 105 100 89 74 67 50 38 44 55 59 57 57 57 58 62 63 63 66 63 59 57 53 47 43 38 33 38 51 57 58 59 57 48 41 42 44 45 49 55 53 46 43 58 71 76 86
177 178 178 177 176 174 173 171 167 164 161 157 153 153 152 150 149 149 145 142 141 139 139 137 135 133 132 127 126 131 133 137 136 123 121 128 129 129 122 109 107 102 87 76 62 48 51 61 64 62 62 64 65 66 67 68 68 66 62 58 49 41 38 35 34 41 54 62 61 59 56 50 46 47 47 46 47 50 53 53 51 56 64 68 72
180 179 177 175 175 173 171 170 167 163 159 154 152 154 153 150 149 146 142 139 138 136 136 134 134 134 132 128 127 133 137 137 133 126 122 122 123 124 117 104 99 99 91 80 68 60 62 68 69 67 66 67 69 71 72 71 69 66 62 53 43 40 42 42 40 44 55 63 62 58 56 51 50 50 50 50 50 51 53 56 55 55 59 63 64
178 177 175 172 171 170 168 167 164 159 156 152 150 153 152 149 147 142 138 134 132 130 128 125 127 131 132 130 128 129 134 138 137 132 126 124 125 122 112 103 98 99 95 85 78 77 77 76 73 70 68 68 69 70 70 67 66 65 64 61 57 56 57 56 52 53 58 60 59 59 56 52 51 51 51 51 53 54 56 59 60 59 60 61 63
172 172 170 167 165 163 162 159 153 150 151 149 147 149 149 145 141 137 134 131 128 126 123 121 124 130 134 136 134 131 132 136 140 142 138 129 122 116 108 104 104 104 101 96 92 90 86 81 77 74 71 68 67 67 68 69 68 66 65 66 65 63 63 64 63 62 62 60 58 58 55 52 51 50 49 50 53 55 58 60 63 65 65 63 63
166 165 163 159 156 154 152 151 147 145 147 148 146 145 144 141 138 137 135 134 133 133 133 132 132 138 143 141 141 141 136 131 130 135 140 135 126 120 115 111 110 111 109 108 107 100 90 83 79 76 73 72 69 67 66 66 67 65 63 62 60 58 61 67 69 69 67 64 61 57 53 51 51 49 48 51 54 57 58 58 60 66 70 71 69
157 155 152 150 149 148 148 148 147 147 147 147 145 143 141 137 137 139 142 143 143 144 144 140 138 146 157 153 148 146 141 134 128 124 126 129 130 129 123 116 114 115 116 118 120 110 96 88 82 76 73 75 75 74 72 67 63 61 60 59 57 54 52 56 64 71 70 68 67 63 58 53 51 48 46 48 55 62 63 60 57 58 63 69 74
152 149 148 147 146 147 147 146 146 146 148 148 145 142 140 138 139 145 150 152 150 149 148 143 141 152 167 163 158 159 153 144 137 130 125 126 130 131 124 116 115 119 123 126 125 115 101 92 86 79 73 70 73 78 79 77 73 66 60 60 59 55 50 49 53 60 65 67 68 67 63 58 54 52 49 46 49 59 70 72 66 62 62 65 69
149 148 148 148 148 148 146 145 147 150 152 152 150 147 146 147 150 153 155 157 154 152 150 147 146 156 169 165 162 165 162 155 149 143 136 132 132 132 126 120 119 119 120 124 123 111 94 85 79 74 74 74 73 73 71 72 78 75 67 66 68 64 57 51 49 53 57 61 65 67 68 65 59 56 54 49 45 47 58 75 79 74 67 64 65
149 150 149 148 149 150 148 148 150 151 151 149 148 148 150 151 151 147 146 152 153 150 152 152 151 156 165 165 164 168 168 167 162 152 145 144 142 137 132 130 129 124 118 125 129 110 73 59 56 49 91 104 93 84 68 56 63 74 71 72 80 78 69 58 53 56 57 57 59 66 73 74 69 64 61 56 49 45 47 58 75 81 72 59 58
151 151 151 149 150 151 152 153 153 151 149 149 150 151 153 152 148 144 148 158 160 159 168 167 157 157 164 165 168 173 175 177 174 165 161 163 161 155 149 145 149 148 141 143 147 86 2 357 355 331 270 215 173 127 103 84 75 71 65 66 76 80 73 66 62 60 59 59 58 58 62 68 70 69 67 62 54 49 47 49 57 70 73 61 55
151 150 150 149 150 152 154 157 156 153 152 154 154 154 154 153 151 149 155 163 168 176 187 179 161 160 166 168 172 178 180 183 182 179 179 182 184 183 180 175 173 166 160 164 187 266 295 291 289 294 285 236 194 161 136 118 102 88 74 66 65 62 60 64 68 66 62 61 61 59 59 59 58 61 65 65 58 50 48 52 56 58 61 60 54
146 145 149 150 152 153 155 156 155 153 152 151 148 146 148 153 155 156 158 165 173 184 194 183 167 165 170 171 176 186 190 188 184 184 187 189 188 184 179 178 177 165 164 175 195 244 266 269 274 291 26 82 87 93 105 109 107 103 93 80 69 57 45 47 60 71 72 68 65 64 64 63 61 57 57 59 58 50 44 53 64 64 59 57 54
143 144 151 155 155 153 152 152 152 151 149 148 146 143 141 144 151 158 164 169 174 182 189 183 174 174 177 177 181 191 194 189 185 188 193 194 189 179 175 184 190 179 176 184 200 255 260 258 334 63 74 82 83 79 73 69 78 93 97 88 76 66 51 44 50 60 66 68 70 69 66 66 65 63 61 60 59 56 49 45 53 69 70 63 63
151 148 148 152 153 148 145 148 150 147 144 144 144 142 138 136 137 145 157 164 168 175 184 182 177 177 181 184 185 184 179 180 186 192 197 200 201 194 191 197 195 181 176 184 232 278 264 236 115 88 93 96 96 97 91 79 70 78 88 91 86 75 52 41 49 58 58 59 63 64 65 67 63 61 66 66 61 59 57 45 35 42 57 59 64
159 153 146 147 150 150 149 150 149 146 143 143 143 144 144 141 136 135 140 146 151 160 170 175 173 170 173 180 184 178 172 177 186 191 191 195 200 198 200 199 189 181 183 203 276 288 257 155 126 136 138 118 111 110 102 99 97 92 93 97 96 84 53 39 54 68 67 58 50 44 51 67 71 65 65 70 67 60 56 49 37 33 39 48 55
156 155 154 153 152 152 152 151 149 147 147 149 151 151 150 148 144 140 138 135 136 141 147 153 157 160 163 168 173 174 174 178 182 181 179 183 186 187 190 188 182 184 190 203 269 276 234 148 130 137 137 130 130 127 122 120 122 132 138 134 123 110 96 75 64 66 71 69 56 40 37 51 72 77 71 72 77 72 63 55 45 37 36 41 46
154 155 158 159 156 153 150 150 151 153 153 153 153 153 153 152 149 147 144 139 136 136 140 144 149 155 162 164 167 173 177 179 179 177 175 176 177 178 182 182 183 190 192 189 229 257 234 160 153 159 159 160 147 135 141 133 98 85 101 114 122 120 110 97 72 63 74 76 64 52 41 38 55 77 77 71 77 84 83 74 58 42 37 39 41
150 154 160 163 161 154 148 151 156 157 157 156 156 156 157 154 150 150 150 148 144 141 143 148 149 154 164 170 172 177 181 182 182 181 180 181 182 183 185 184 186 194 201 207 229 248 229 164 163 169 171 177 178 170 152 131 112 84 67 80 92 98 103 109 94 48 79 85 64 61 65 48 50 70 79 70 63 68 82 88 82 63 45 41 47
146 155 164 167 164 155 151 155 159 159 158 158 157 157 156 154 153 153 151 153 153 150 149 153 155 157 165 173 177 181 183 185 186 187 188 190 192 193 195 200 208 215 214 211 214 220 211 188 175 175 180 186 191 186 167 145 156 192 180 127 113 100 111 139 135 68 78 95 68 56 78 70 62 77 84 79 68 58 58 73 87 81 61 47 51
153 161 165 164 160 154 151 154 156 156 156 155 153 153 153 154 156 156 155 159 163 159 158 164 167 168 172 176 180 183 185 185 187 190 194 197 201 205 207 213 236 246 222 200 193 202 207 197 187 189 194 198 202 193 181 176 179 173 162 155 147 131 125 133 119 71 78 112 87 59 73 73 71 84 88 88 87 77 66 60 66 78 75 60 51
163 167 165 160 154 149 149 152 154 155 155 154 154 155 155 156 157 160 163 168 168 164 164 170 175 178 180 180 180 183 185 186 187 192 199 203 207 213 215 217 234 252 225 193 187 197 207 202 194 195 197 201 208 201 184 179 182 176 179 191 181 166 163 161 141 103 109 119 102 80 78 79 78 83 89 94 95 93 90 80 65 66 72 66 59
170 170 164 158 154 152 154 155 156 157 157 158 160 160 159 159 162 166 169 171 170 168 168 173 179 183 185 185 185 184 185 188 190 194 201 205 208 214 217 218 223 232 224 201 189 196 211 210 197 198 203 202 199 197 189 185 189 193 206 219 204 179 175 174 151 124 121 131 136 133 113 103 104 106 111 111 101 94 102 101 92 87 81 65 47
169 167 164 161 158 156 157 159 159 160 160 160 161 162 161 162 166 170 173 174 175 176 174 176 183 187 188 192 193 189 186 189 193 197 202 204 206 210 213 214 218 222 218 205 193 198 213 211 197 200 211 208 199 199 197 188 186 195 208 221 217 185 173 170 167 165 162 167 164 142 124 126 127 127 138 137 108 95 107 105 103 106 96 78 40
165 163 165 165 162 159 160 162 163 163 162 162 163 165 166 167 171 176 177 177 179 182 180 179 184 189 191 195 198 193 189 189 194 200 204 205 206 208 209 210 216 218 211 203 199 201 210 207 195 197 209 208 201 201 198 192 194 202 205 209 218 210 185 168 170 182 178 170 167 150 143 154 146 143 173 200 149 109 104 90 88 98 93 84 67
165 165 167 168 167 166 165 163 163 164 165 166 167 169 171 175 178 182 182 180 181 184 183 181 184 188 190 194 197 194 191 192 199 204 205 204 206 207 205 206 213 213 207 204 203 201 203 204 198 198 208 210 205 201 199 197 202 211 212 209 214 221 198 167 167 187 187 173 179 188 183 175 169 182 231 241 154 134 131 94 76 94 93 89 83
167 170 172 173 173 172 169 165 164 166 167 168 170 174 177 180 182 184 184 182 183 186 185 181 179 182 184 187 191 193 194 198 207 211 207 203 204 204 202 204 208 206 201 202 200 197 199 203 203 204 210 211 206 202 201 201 205 215 225 220 209 212 210 182 177 192 189 172 176 192 191 181 185 197 217 237 177 154 153 136 96 79 94 106 108
169 171 174 176 175 173 171 169 168 168 168 170 174 178 180 182 185 186 185 182 184 188 187 179 173 176 180 182 187 194 198 202 211 216 209 202 204 205 202 204 206 202 199 198 197 195 196 199 203 206 208 206 206 205 202 200 203 209 220 224 212 213 219 210 193 193 188 176 178 193 193 193 202 196 184 190 221 196 160 150 152 181 174 132 134
171 173 176 178 176 172 171 172 172 171 171 174 177 178 179 182 186 187 186 184 185 189 191 182 171 173 179 183 187 194 200 203 209 216 209 202 205 207 204 204 207 204 200 199 199 197 195 196 201 207 206 203 208 212 207 201 200 200 201 209 214 215 213 205 194 190 189 190 196 210 209 213 231 225 168 166 195 256 153 136 141 168 141 58 64
174 177 180 181 177 173 172 173 173 173 174 177 178 178 178 182 185 187 190 192 189 191 195 190 176 172 179 186 190 196 201 202 206 211 208 205 207 207 205 206 208 202 196 198 201 200 196 195 199 206 206 204 208 212 210 207 207 205 200 199 201 203 204 200 191 183 189 202 213 224 213 209 225 221 190 180 189 201 184 178 194 199 193 200 248
176 180 184 183 178 175 173 173 173 175 176 177 177 177 179 181 184 187 194 197 194 192 198 200 187 177 180 188 193 197 201 202 205 209 211 210 209 207 206 210 208 198 192 198 202 199 196 197 200 204 207 207 209 210 208 207 211 210 204 201 203 207 210 205 195 186 186 199 212 216 206 201 222 211 193 191 206 212 198 213 244 235 199 197 272
178 182 186 185 180 177 174 173 175 177 177 177 177 177 178 180 184 190 196 200 198 196 200 205 198 186 182 186 191 196 200 202 204 209 213 213 209 206 208 211 206 197 195 201 202 197 195 197 199 203 206 208 210 211 209 206 207 207 205 206 211 214 215 214 211 203 195 189 191 200 210 220 238 222 194 197 217 231 219 234 272 292 295 286 287
185 184 186 187 184 180 176 175 177 179 178 178 179 179 180 184 191 196 198 198 197 196 200 205 204 195 187 186 190 194 198 200 203 207 212 212 207 205 208 210 206 199 198 201 201 198 197 199 201 204 207 208 210 211 211 209 207 204 205 211 216 218 219 223 225 222 215 204 193 190 208 224 229 230 221 214 217 226 236 246 259 269 273 280 287
193 188 188 189 188 184 180 179 181 182 181 180 182 184 186 189 194 198 198 196 195 195 198 202 205 201 194 191 192 195 198 201 203 206 210 211 207 204 206 209 205 200 200 203 202 199 199 202 204 205 207 209 211 212 212 212 210 208 209 215 219 222 225 229 229 227 225 218 204 193 198 218 225 224 225 223 222 228 235 239 244 257 267 272 277
Height
785 786 788 789 790 791 793 794 796 797 798 800 801 801 801 801 802 802 802 804 805 807 810 811 812 813 814 814 814 814 815 815 815 815 815 815 815 815 814 813 813 812 811 811 810 809 808 807 806 805 803 802 801 799 798 797 796 795 794 793 792 792 791 790 790 789 787 786 785 784 784 783 782 782 782 781 780 779 779 779 779 780 779 779 780
783 785 786 788 788 789 791 792 795 797 798 800 800 800 800 800 801 800 802 804 806 808 810 810 812 813 813 814 814 814 815 815 815 815 815 815 815 815 814 813 813 812 812 811 810 810 809 807 806 805 804 803 802 801 800 798 797 796 795 794 793 793 792 791 791 790 788 786 786 785 784 784 783 783 782 782 781 780 780 780 779 780 780 780 780
782 784 785 786 787 788 789 790 792 795 797 799 800 799 800 799 799 800 802 805 806 808 809 810 811 812 812 813 813 814 815 815 815 815 815 816 815 815 814 814 813 813 812 812 811 810 809 808 807 806 805 804 802 802 801 800 799 798 797 796 795 793 792 792 791 790 789 787 786 786 785 785 784 783 783 782 782 781 781 780 780 780 780 780 780
781 783 784 786 786 787 788 789 791 794 796 798 798 798 798 797 798 800 803 805 806 808 809 810 811 812 812 813 814 814 814 814 815 815 815 816 815 815 815 814 814 814 813 812 811 811 809 808 808 807 806 805 804 803 802 801 800 799 798 797 795 794 793 792 791 790 790 788 787 787 786 785 785 784 783 782 781 782 781 781 781 780 779 780 781
780 782 784 785 786 787 788 790 792 794 795 797 798 797 797 797 798 800 802 804 806 808 809 811 812 813 813 814 814 814 815 815 815 815 816 816 815 815 815 815 814 814 813 813 812 811 810 809 808 807 806 805 805 804 803 802 802 800 799 797 796 795 793 792 791 790 790 789 788 787 786 785 784 784 783 782 781 781 781 782 782 780 780 781 782
778 781 783 785 786 787 788 790 792 793 795 797 797 797 797 798 799 800 802 804 806 808 810 811 812 813 814 814 814 815 814 814 815 815 816 816 815 816 815 815 815 814 813 813 812 812 810 810 809 808 808 807 806 805 804 803 802 801 799 798 796 795 794 793 792 791 790 789 788 787 786 785 785 784 783 783 782 782 782 783 783 783 782 782 783
777 780 782 784 785 786 787 790 792 793 795 795 796 797 797 798 799 801 803 804 806 808 810 811 812 813 814 814 814 815 814 814 814 815 816 816 816 816 816 815 815 814 814 814 813 812 811 810 810 809 809 808 806 805 804 803 802 801 800 798 797 796 794 793 792 791 790 789 789 788 787 786 785 785 784 784 784 783 783 784 785 785 783 783 783
776 779 781 782 784 785 787 789 791 793 794 794 795 797 797 798 800 801 803 805 807 809 810 811 812 813 814 815 815 815 814 813 814 815 816 817 817 817 816 816 815 815 815 814 814 813 812 811 811 810 810 809 807 806 805 804 803 802 800 799 798 797 795 794 793 792 791 791 790 789 788 788 786 785 785 785 785 785 785 785 785 785 784 784 784
775 777 779 781 783 784 786 788 790 792 793 793 795 796 797 798 800 802 804 806 808 810 810 811 812 813 815 815 815 815 814 813 814 815 816 816 817 817 817 817 816 816 815 815 814 813 812 812 811 811 810 809 808 807 806 805 804 803 802 801 799 798 797 796 795 794 793 792 791 791 790 789 787 786 787 787 787 787 786 785 784 785 786 786 786
773 775 777 779 781 784 785 788 790 791 791 793 794 795 797 799 801 803 805 806 808 810 811 812 813 814 815 816 816 816 815 814 814 815 816 816 817 818 818 818 817 816 816 815 815 814 813 813 812 811 811 810 809 808 807 806 805 804 804 803 801 800 799 798 797 796 795 795 794 793 792 791 790 789 789 789 789 788 786 785 785 785 786 787 788
772 774 776 778 780 783 785 787 789 790 791 792 794 795 798 799 801 803 805 807 808 810 811 813 814 815 816 816 816 816 816 816 816 816 817 817 817 818 818 818 818 817 817 816 816 815 814 813 812 812 811 810 809 808 807 807 806 806 805 805 803 802 800 800 799 798 798 797 797 796 795 794 793 792 791 791 790 789 788 787 787 787 787 788 789
771 773 775 777 779 781 784 785 787 789 790 792 794 796 798 800 802 804 805 807 809 810 812 813 814 815 816 816 817 817 817 817 817 817 817 818 818 818 819 819 818 818 818 817 816 815 814 814 813 812 812 810 809 808 807 807 807 806 807 806 805 804 803 802 801 800 800 800 799 799 798 797 796 795 793 792 792 791 791 790 790 790 789 789 790
770 772 774 776 778 780 783 784 786 789 790 792 795 796 798 800 802 804 806 808 809 811 812 814 815 816 816 816 817 818 818 818 818 818 818 818 818 818 819 820 819 819 819 818 817 816 815 814 813 813 812 811 810 808 807 806 806 807 807 807 807 806 805 804 803 803 802 802 801 801 801 800 798 797 796 794 794 793 793 793 793 793 792 792 792
769 771 773 775 777 779 781 783 785 788 790 792 795 797 798 800 802 804 806 807 809 811 813 814 815 816 816 817 818 818 819 819 818 818 819 819 819 819 820 820 820 820 820 818 818 816 815 814 814 813 813 811 810 809 808 807 806 807 808 808 808 808 807 806 805 804 804 803 803 803 802 801 800 799 798 796 795 795 795 795 795 795 795 795 795
767 769 772 774 776 778 780 782 785 787 789 792 795 797 798 800 802 804 805 807 809 811 813 814 815 816 817 817 818 819 819 819 819 819 819 819 819 820 820 821 821 821 820 819 818 817 816 815 814 814 813 812 811 810 809 808 807 808 809 809 809 809 808 808 806 806 805 805 804 804 803 803 802 800 799 798 796 796 796 796 796 797 797 797 797
765 768 770 772 774 776 778 781 783 786 789 792 794 796 798 799 801 803 805 808 810 811 813 814 815 816 818 818 819 819 820 820 820 820 820 820 820 820 821 821 822 821 821 820 819 818 817 815 815 815 814 813 812 811 810 809 808 809 810 810 810 810 810 809 808 807 807 806 805 805 804 804 803 801 800 799 798 798 797 797 798 798 798 799 799
764 766 768 770 772 774 776 779 782 785 788 791 793 795 796 799 801 803 805 807 809 811 813 814 815 817 818 819 819 820 820 821 821 821 821 821 820 821 821 822 822 822 822 821 820 819 818 816 816 816 815 814 813 812 811 810 809 810 811 811 812 811 811 810 809 809 808 807 807 806 806 805 804 802 801 800 799 798 797 798 799 800 800 800 801
761 764 766 768 770 773 775 778 780 784 787 789 791 793 796 798 801 802 804 806 809 811 813 814 816 817 818 819 820 820 821 821 821 822 822 822 821 821 822 822 822 823 822 822 821 820 819 818 817 817 816 815 815 814 813 812 811 811 812 812 812 812 812 811 810 810 809 809 808 808 808 807 806 804 803 802 801 799 798 799 801 801 801 802 802
759 761 764 766 769 771 774 777 779 782 785 788 790 792 795 797 800 802 805 807 809 812 813 815 817 818 819 820 820 821 821 821 822 822 822 822 822 822 822 822 822 823 823 823 823 822 821 820 819 819 819 818 817 815 814 814 813 813 814 814 813 813 813 813 812 811 811 811 810 810 810 809 808 806 805 804 803 802 801 802 802 802 802 803 804
756 760 762 764 767 770 773 776 778 781 783 786 789 792 794 796 799 802 805 808 810 813 815 817 818 819 820 821 821 821 822 822 822 823 822 822 822 822 823 823 823 823 823 823 824 823 822 821 821 821 821 820 819 817 816 816 815 815 815 815 815 814 814 814 813 812 812 812 812 812 812 811 810 808 807 806 805 805 804 804 804 804 804 805 805
754 758 760 763 766 769 772 775 778 780 782 785 788 792 794 796 799 802 806 809 812 815 818 819 821 822 822 822 822 822 822 823 823 823 823 823 823 823 823 823 823 824 824 824 825 824 823 822 823 823 823 822 821 820 819 818 817 817 816 816 816 816 816 816 815 814 813 813 813 813 813 812 811 810 809 809 808 808 807 807 807 806 806 807 807
753 756 759 762 766 769 772 775 777 780 782 785 788 792 795 797 800 803 806 809 812 814 817 819 823 825 825 824 824 823 824 824 824 824 824 824 824 824 824 824 824 825 825 825 825 825 824 824 824 825 825 824 823 822 821 820 820 819 818 818 818 818 817 817 817 816 816 815 815 815 814 814 813 813 812 811 811 811 810 810 809 809 809 809 809
751 755 759 762 765 769 772 774 777 780 782 784 788 791 794 797 800 802 804 806 809 811 812 814 819 825 826 826 825 825 825 825 825 825 825 825 825 825 825 825 825 825 826 826 826 826 825 825 825 826 826 825 825 824 823 822 821 821 820 820 819 819 818 818 818 818 817 817 817 816 816 816 815 815 814 814 814 814 813 812 812 812 811 811 811
751 754 759 762 765 768 771 773 776 779 781 784 788 791 794 796 799 801 802 802 804 806 807 809 814 821 826 826 826 826 825 826 826 826 827 826 827 827 826 826 826 826 827 827 827 827 826 826 826 827 827 827 826 825 825 824 823 823 822 822 821 821 820 819 819 819 819 818 818 818 818 818 817 817 816 816 816 816 815 815 815 814 813 813 813
749 753 757 760 763 767 769 772 775 778 780 784 787 789 792 794 797 799 801 801 801 803 805 806 810 818 824 824 825 826 826 826 827 827 828 828 828 828 827 827 827 827 827 828 828 828 827 827 827 827 827 827 827 826 826 826 825 825 824 824 823 822 821 821 820 820 820 819 819 820 819 819 819 819 818 818 818 817 817 817 817 817 816 816 815
748 752 755 758 760 763 766 769 772 775 777 780 783 785 788 790 792 795 800 803 803 802 804 805 807 815 821 822 824 826 826 827 828 828 828 829 829 829 828 828 828 828 828 829 829 828 828 827 827 827 827 827 827 827 827 826 826 826 826 825 824 824 823 822 822 821 821 821 821 821 821 821 821 821 820 820 819 818 818 819 819 819 819 818 817
746 749 753 755 758 760 762 766 770 773 777 780 782 784 786 789 792 796 802 809 809 808 808 807 806 811 817 820 823 825 826 827 827 827 828 829 830 830 829 828 829 829 829 829 829 829 828 828 827 827 828 828 828 827 827 827 827 827 826 826 825 825 824 824 823 823 823 823 822 822 822 822 822 821 822 821 820 820 819 820 820 820 820 820 819
745 748 750 753 755 757 760 764 767 771 775 779 781 783 784 787 790 794 801 808 811 812 812 808 806 809 814 817 821 823 825 826 827 827 828 829 830 830 829 829 829 829 829 829 829 829 829 828 827 827 827 827 828 827 827 827 827 827 827 827 826 826 825 825 825 824 824 824 823 823 823 823 822 822 822 822 822 821 821 821 821 821 821 821 821
746 747 749 751 754 757 760 764 765 767 769 773 776 780 782 783 786 789 794 800 806 810 812 809 805 807 811 815 818 821 823 825 825 826 827 828 829 829 829 829 829 829 829 829 829 829 829 828 827 826 826 826 827 827 827 827 827 828 828 828 827 827 826 826 826 825 825 825 825 824 824 824 823 823 823 823 823 822 822 822 822 822 822 822 822
747 748 749 751 754 757 760 764 765 766 767 770 774 779 782 783 784 787 791 795 800 805 810 809 806 806 809 813 816 819 821 823 824 825 826 827 828 828 828 828 828 828 829 829 829 829 828 827 827 826 826 827 827 827 827 827 827 828 828 828 828 828 827 826 826 826 826 826 825 825 825 824 824 824 823 823 823 823 823 823 823 823 823 823 823
748 750 751 752 755 758 760 763 765 767 769 771 773 777 780 783 785 788 791 793 796 802 807 808 807 807 809 812 815 818 820 821 823 824 825 826 827 827 827 828 828 828 828 828 828 828 827 827 827 827 827 827 828 828 828 828 828 828 828 829 829 829 828 827 827 827 827 826 826 826 825 825 825 824 824 824 824 824 824 823 823 823 823 823 823
750 752 754 756 758 761 763 765 767 769 771 774 776 778 779 782 785 789 792 794 796 800 805 807 807 807 809 811 814 817 819 820 822 823 824 825 826 826 827 828 828 828 828 827 827 827 827 827 827 827 828 828 828 828 828 828 829 829 829 829 829 829 829 828 828 828 828 827 826 826 826 826 825 825 825 825 825 825 825 824 824 824 823 824 824
751 753 756 758 760 763 765 766 768 769 771 774 778 780 782 783 785 788 792 795 797 800 804 806 806 807 809 811 814 816 818 820 821 822 823 824 825 826 827 827 827 827 827 827 826 826 826 827 827 827 828 828 828 829 829 829 829 829 829 830 830 829 829 829 828 828 828 828 827 827 826 826 826 825 825 825 825 826 826 825 825 825 824 824 825
751 753 756 758 761 763 765 767 769 770 771 774 777 780 783 784 785 786 791 794 796 799 803 805 806 807 809 812 814 816 818 820 820 821 822 823 824 825 826 827 827 827 826 826 826 825 826 826 826 827 828 828 828 829 829 829 829 829 830 830 829 829 829 829 828 829 829 829 828 827 826 826 826 826 826 826 826 826 827 827 827 826 825 826 826
751 754 757 759 761 764 765 768 769 770 771 774 776 779 782 784 786 787 790 793 795 798 801 804 805 807 809 812 814 816 818 819 820 820 821 822 824 825 826 826 826 826 826 825 825 825 825 826 826 827 828 828 828 829 829 828 829 829 829 829 829 829 829 829 829 830 830 830 829 829 828 827 826 826 826 826 826 827 827 827 828 827 827 827 827
752 755 758 760 762 763 764 767 768 770 771 773 777 780 782 784 786 789 791 794 796 798 801 803 805 807 810 811 813 816 817 818 819 820 820 822 823 824 825 825 825 825 825 824 825 825 825 825 826 826 827 828 828 829 829 828 829 829 829 829 829 829 829 830 830 830 830 831 830 829 829 828 827 827 827 827 827 827 827 827 828 828 828 828 828
752 755 757 759 761 762 764 767 769 771 773 775 777 779 781 783 786 789 791 794 796 798 801 802 804 807 809 811 813 815 816 817 818 819 820 821 822 823 824 824 824 824 823 823 824 825 825 825 825 826 827 828 828 828 828 828 829 829 830 830 830 829 829 830 830 830 830 831 831 830 830 829 829 828 828 828 828 828 828 828 828 828 829 829 829
751 753 755 757 759 760 763 766 769 772 774 776 778 779 781 783 786 788 791 793 795 797 799 801 803 805 807 809 811 813 815 816 817 818 819 820 821 821 822 822 822 822 821 822 823 824 825 825 825 825 826 827 827 828 828 828 828 829 830 830 829 829 829 829 830 830 830 831 831 831 830 830 830 829 829 829 829 829 829 829 829 829 829 829 829
751 752 754 756 757 759 762 764 767 770 773 774 777 779 780 782 784 786 789 791 793 795 797 799 801 803 805 807 809 811 813 814 815 816 817 818 819 820 820 820 820 820 820 820 822 823 824 824 824 825 825 826 826 827 827 827 828 829 829 829 829 829 829 829 830 830 830 831 831 831 831 831 830 830 830 830 830 830 830 830 830 830 830 830 830
750 752 753 755 757 759 761 763 766 768 770 772 774 776 778 780 782 784 787 789 792 793 795 796 799 801 802 804 806 808 810 812 813 814 816 816 817 817 818 818 818 818 818 819 820 822 823 823 823 824 825 825 826 826 826 827 827 828 829 829 829 828 829 829 830 830 830 830 831 831 831 831 831 831 831 830 830 830 830 830 830 830 830 830 831
750 751 753 755 757 759 760 763 765 767 768 771 772 774 776 778 780 783 785 787 789 791 792 794 796 798 799 801 803 805 808 809 811 812 813 814 815 815 815 816 816 817 817 818 819 821 822 822 822 823 824 824 825 825 825 826 827 827 828 829 828 828 828 829 829 830 830 830 830 831 831 831 831 831 831 831 830 830 830 830 830 830 830 831 831
749 751 753 755 757 759 760 762 764 766 768 770 771 773 775 777 779 782 783 784 786 788 789 792 794 795 797 799 801 804 806 807 809 810 811 812 812 813 813 814 815 815 816 816 817 819 820 821 821 822 823 824 824 825 825 825 826 827 828 828 828 828 827 828 829 829 830 830 830 830 831 831 831 831 831 831 831 831 831 831 831 831 831 831 831
749 751 752 754 756 758 759 761 763 765 767 769 770 773 774 776 779 781 781 782 784 785 787 790 792 793 795 797 800 802 804 805 807 808 808 809 810 810 811 812 813 813 814 815 815 817 819 819 820 821 822 823 824 824 824 824 825 826 827 827 827 828 827 827 828 829 829 829 830 830 830 831 831 831 831 830 830 831 831 831 831 831 831 831 832
748 750 752 754 755 757 758 760 761 763 766 767 770 772 774 775 777 778 779 780 782 783 786 788 789 791 793 796 798 800 802 803 804 805 806 807 807 808 809 810 811 811 812 813 814 815 817 818 819 820 821 822 823 823 823 824 824 825 826 827 827 827 827 827 827 828 828 829 829 829 830 830 830 831 831 830 830 830 831 831 831 831 831 831 832
747 749 751 752 753 755 756 758 760 762 764 766 768 770 772 773 775 776 778 779 781 783 785 786 787 789 792 794 796 798 799 800 801 802 803 804 805 806 807 808 808 809 810 811 812 813 815 816 818 819 819 821 821 822 822 823 823 824 825 826 826 827 827 827 827 827 828 829 829 829 830 830 830 830 830 830 830 830 830 831 831 831 831 831 831
747 748 749 751 752 753 754 756 759 760 762 764 766 768 770 772 773 775 777 778 780 782 783 784 786 788 790 792 794 795 796 798 799 800 800 802 803 804 805 806 806 807 808 810 811 811 812 814 816 817 818 819 820 820 821 821 822 823 823 824 826 826 826 826 826 827 828 828 828 829 829 829 829 829 830 830 830 830 830 830 831 831 831 831 831
745 747 749 749 750 751 753 755 757 758 760 763 764 766 768 770 771 773 775 777 778 780 782 783 784 786 788 790 792 793 794 795 796 797 798 800 800 802 803 804 804 805 806 808 809 810 810 812 814 815 816 817 818 819 820 820 821 821 822 823 824 825 825 825 826 826 827 828 828 828 828 828 829 829 829 830 830 830 830 831 831 830 831 831 831
744 746 748 748 749 750 752 753 755 757 759 761 763 765 767 769 770 772 774 776 777 779 780 781 782 784 785 788 789 790 791 793 794 795 797 797 798 799 801 802 802 803 804 806 807 808 808 810 812 813 814 816 816 817 818 819 819 820 820 821 823 823 824 825 825 826 827 827 827 828 828 828 828 829 829 829 830 830 830 830 830 830 830 830 830
742 744 746 747 748 749 750 752 755 756 758 760 762 764 765 767 769 770 772 774 775 776 778 779 780 781 783 784 786 787 789 790 791 793 794 795 796 797 799 800 801 802 803 804 805 806 807 808 810 811 813 814 814 815 816 817 818 818 819 820 821 822 823 824 824 825 826 826 827 827 828 828 828 828 828 829 829 829 830 830 830 829 830 830 830
740 741 743 745 747 748 749 751 753 755 756 758 760 762 763 765 766 768 769 770 772 773 775 776 777 778 780 781 783 784 786 787 789 790 791 792 794 795 796 798 799 800 801 803 803 804 805 806 807 809 810 811 812 813 814 815 816 817 817 817 818 820 821 822 823 824 825 825 826 826 827 827 828 828 828 828 829 829 829 829 829 829 829 829 829
737 738 741 743 745 746 748 749 751 752 754 756 757 759 760 761 763 764 765 767 768 770 772 773 774 776 777 778 779 781 783 784 786 788 789 790 791 792 794 795 796 797 799 801 801 802 803 804 805 806 808 809 810 811 812 812 813 814 815 816 817 818 819 820 821 822 823 824 824 825 826 826 827 827 827 828 828 828 828 829 829 829 829 829 829